STARLINK-34501

Last updated on Thu Jul 03 2025 00:02:07 GMT+0000 (Coordinated Universal Time)

1 64429U 25129T 25183.58335648 -.01562926 00000+0 -18557-1 0 9994 2 64429 70.0002 351.5438 0003360 264.7782 39.4410 15.63978189 3688
UTC large
Height (km)
Speed (km/s)
/
Latitude / Longitude
Inclination (degrees)
Orbital Period (minutes)
Azimuth
Elevation
Range (km)
Doppler Factor

Next 0 passes for location: London (51.5072 / 0.1276)

Sorry there are no passes over London.